Wind_Speed
18 17 16 15 14 13 13 13 13 14 14 15 16 16 16 17 18 20 21 22 23 25 26 27 28 29 30 30 30 30 30 30 30 30 29 29 29 28 29 28 29 29 30
13 13 12 10 10 10 11 12 13 14 15 16 17 18 19 20 21 22 23 24 25 26 27 28 30 30 31 31 32 32 31 31 31 31 31 30 30 30 30 30 30 30 31
7 6 6 7 7 9 10 12 13 14 16 17 18 19 21 22 23 24 25 26 27 27 28 29 30 30 31 31 32 32 32 32 32 33 33 32 32 32 31 32 32 31 32
4 5 6 7 8 9 11 12 13 15 16 18 19 21 22 23 25 26 27 27 28 28 29 30 30 30 31 32 32 33 33 33 34 34 34 34 34 34 33 33 34 33 33
4 5 6 7 8 10 12 13 14 16 18 19 21 23 24 25 26 27 27 28 28 29 30 30 31 31 32 32 33 33 34 34 35 35 35 36 36 36 36 35 35 35 35
4 6 7 8 10 11 13 15 17 19 20 22 23 24 25 26 27 27 27 28 29 30 30 31 31 32 32 32 33 34 34 35 35 35 36 36 37 37 37 37 37 37 37
6 7 9 10 12 14 15 17 19 21 22 23 24 25 25 26 26 27 28 28 29 30 30 31 31 32 32 33 33 34 34 35 35 36 36 37 38 38 38 38 38 39 39
8 10 11 13 14 16 17 19 21 22 23 24 24 25 25 26 26 27 28 29 29 30 30 31 31 32 33 33 34 34 35 35 36 36 37 37 38 39 39 39 39 39 40
10 12 13 14 16 17 19 20 21 22 23 24 24 24 25 26 26 27 28 28 29 29 30 31 31 32 32 32 33 33 34 35 36 37 38 38 39 39 40 40 40 40 40
12 13 14 16 17 18 20 21 21 22 23 24 24 24 24 25 26 27 28 29 29 30 31 31 32 32 32 32 33 34 34 35 36 37 38 39 40 40 41 41 41 41 42
13 14 15 17 18 19 20 21 22 22 23 23 23 24 25 26 27 28 29 30 31 31 32 32 32 33 33 33 34 35 35 36 37 38 38 39 40 41 41 42 42 42 42
14 15 16 17 18 19 21 22 22 22 22 23 24 25 27 28 29 30 31 32 33 33 33 33 33 34 34 35 35 36 37 37 38 39 39 39 40 41 42 43 43 44 44
14 15 16 18 19 20 21 22 22 22 22 23 25 27 28 30 31 33 33 34 35 35 35 35 35 35 35 36 37 37 37 37 37 38 39 39 40 41 42 43 44 45 45
14 15 17 18 19 21 21 22 22 23 24 26 28 29 31 33 34 35 36 36 37 37 36 36 36 36 37 37 36 36 36 36 36 37 37 38 39 40 42 43 45 46 46
15 16 18 19 20 21 22 22 23 24 26 28 30 32 34 35 36 37 38 38 38 38 38 37 37 37 37 36 36 36 36 36 36 37 37 38 39 40 41 43 44 46 47
16 17 18 20 21 22 23 24 25 26 28 30 32 34 36 37 38 39 40 40 40 40 39 38 38 37 36 36 36 36 36 36 36 37 37 38 38 39 41 42 44 46 47
16 18 19 21 22 23 24 25 26 28 30 32 34 36 38 39 40 41 41 42 42 41 40 39 38 37 36 36 35 36 36 35 36 36 37 38 39 40 41 43 44 46 48
17 19 20 22 23 24 25 26 28 29 31 34 36 38 40 41 41 42 43 43 42 41 40 39 38 37 36 36 36 36 35 35 36 36 36 37 38 40 41 42 44 46 48
19 20 22 23 24 25 26 27 29 31 33 36 38 40 41 42 42 43 43 43 42 41 40 38 37 36 36 36 35 35 35 34 34 35 36 36 37 39 40 41 43 45 47
20 22 23 24 25 26 27 29 31 33 35 37 39 41 42 43 44 44 44 43 42 41 39 37 36 37 36 35 35 34 34 34 34 34 35 35 36 36 37 38 40 43 45
22 23 24 26 27 28 29 31 33 34 37 39 41 43 44 45 45 45 44 43 42 40 38 37 37 36 35 34 34 33 33 33 32 32 33 34 33 33 34 36 37 40 44
24 25 26 27 28 29 31 32 34 36 38 41 43 44 45 45 45 44 44 43 41 39 37 37 36 35 34 33 32 32 32 31 30 30 31 30 30 30 31 33 35 38 41
26 27 28 29 30 31 32 34 36 38 41 43 45 46 47 46 45 45 44 42 40 39 37 36 35 34 33 32 32 32 31 30 29 28 27 26 26 26 27 29 32 35 38
28 29 31 32 33 33 35 36 38 40 43 45 46 47 47 47 45 44 43 41 40 38 37 36 35 33 32 31 31 30 29 27 26 25 23 22 22 22 23 26 28 31 35
30 32 33 34 34 35 37 38 40 42 44 46 47 48 48 47 45 44 42 41 39 38 36 35 34 32 31 31 30 29 27 26 24 22 20 18 18 17 18 21 24 27 31
33 34 36 36 37 38 40 41 41 43 45 48 48 49 48 46 44 43 41 40 39 37 35 33 33 31 31 30 29 27 26 24 22 20 17 16 15 14 14 16 19 23 27
Wind_Direction
260 262 266 269 275 279 285 293 299 301 302 305 305 305 305 304 301 297 293 289 286 284 283 281 280 279 279 278 277 276 274 272 271 269 268 266 264 262 260 258 255 251 247
259 265 268 274 283 290 293 297 300 302 303 304 306 307 307 305 302 298 294 291 288 286 284 283 282 281 280 278 277 276 273 271 269 267 265 264 262 261 259 257 255 251 248
258 275 285 289 296 301 302 305 306 306 307 308 308 307 305 302 300 298 297 295 292 290 288 286 285 283 281 279 277 275 273 271 268 266 264 262 260 259 257 257 254 251 248
281 292 298 304 309 312 311 311 310 309 309 308 307 305 303 302 301 300 299 297 295 293 291 289 287 285 282 280 278 276 274 271 268 266 263 261 259 257 255 255 254 251 249
300 312 312 316 314 313 312 311 311 311 310 309 308 307 306 304 303 301 300 299 297 295 294 292 290 287 284 281 279 276 274 272 269 267 264 261 259 257 254 252 252 251 249
321 321 320 318 315 314 313 313 313 313 313 312 310 308 307 306 305 304 303 301 300 298 296 295 293 290 287 284 281 278 275 272 270 267 264 262 259 257 254 251 250 249 248
325 325 323 320 318 317 316 316 315 314 313 312 311 310 310 309 308 307 306 304 302 300 298 296 293 292 289 286 283 280 277 275 272 268 265 262 260 257 255 251 248 247 246
326 323 321 319 318 316 315 315 316 315 315 314 313 313 313 312 310 309 308 306 304 302 299 297 295 293 290 287 284 281 278 276 273 270 267 263 261 258 255 252 249 246 244
322 319 316 314 314 314 315 315 316 317 317 317 316 315 315 314 313 312 310 309 306 304 302 299 297 294 291 288 285 282 280 278 274 271 268 265 261 258 255 252 249 245 243
318 316 315 314 315 315 316 317 318 319 319 318 317 317 317 316 314 313 312 311 308 306 303 300 298 296 293 290 287 284 282 279 275 272 268 265 262 259 256 252 249 246 243
315 314 314 315 315 317 318 318 319 319 320 321 321 320 320 319 318 316 315 313 311 308 306 302 299 296 294 291 288 286 283 281 277 273 269 266 263 259 256 252 249 246 243
313 314 314 315 316 317 319 320 321 322 323 324 324 324 324 323 322 320 318 316 314 311 307 304 300 297 295 292 289 287 285 281 278 274 270 266 263 259 255 251 248 245 243
311 312 314 316 317 319 321 323 323 324 325 326 326 326 325 325 324 323 321 319 316 313 309 306 302 299 296 294 292 289 287 283 279 275 271 267 263 259 255 251 248 245 242
311 313 315 317 320 323 324 325 326 327 327 328 327 327 326 325 325 324 323 321 318 315 311 308 305 302 299 296 293 291 288 284 280 276 271 267 264 260 255 251 248 245 242
311 314 317 319 322 324 326 327 328 329 329 329 328 327 327 326 325 324 323 321 319 316 313 309 306 304 301 298 295 293 290 286 281 277 272 268 264 260 256 252 249 245 242
312 315 318 321 323 325 328 329 329 329 329 329 329 328 328 327 325 324 323 322 320 318 314 311 308 306 303 299 297 294 291 288 283 279 274 269 266 261 257 253 249 245 241
312 315 318 321 324 325 327 328 328 328 329 329 330 330 329 328 326 325 324 323 321 319 316 313 311 308 304 301 298 296 293 290 286 281 277 271 267 263 259 254 250 245 241
311 314 317 320 323 324 325 325 326 327 328 328 329 329 329 328 328 326 325 323 322 320 318 315 313 310 307 304 301 298 295 292 288 283 279 273 268 264 260 255 250 245 240
310 313 317 319 321 322 323 324 326 327 327 328 329 329 329 329 328 327 325 324 323 321 319 317 315 313 310 307 303 301 298 295 290 285 280 276 271 265 259 254 249 244 239
310 312 315 317 319 320 322 323 325 326 327 328 328 329 329 329 329 328 326 325 324 322 320 318 316 314 312 309 306 303 301 297 293 288 282 278 273 267 260 253 248 242 238
309 312 314 316 318 319 321 323 325 326 327 327 328 328 328 328 329 328 327 326 325 323 321 320 318 316 314 312 309 307 304 300 296 292 287 282 275 267 259 252 247 241 236
308 310 312 315 317 319 320 322 324 326 326 327 327 328 328 328 329 328 327 327 325 324 322 321 320 319 318 315 313 310 308 304 299 296 292 286 277 267 259 252 246 241 237
308 310 312 313 315 317 319 320 322 324 325 327 327 328 328 328 328 328 328 327 326 325 324 323 322 322 320 318 315 314 312 309 305 301 295 288 280 269 260 252 246 241 235
307 308 310 312 313 315 317 319 320 322 324 326 327 327 327 328 328 328 328 328 327 326 325 324 324 323 323 322 320 318 316 313 310 306 300 293 284 273 262 253 246 240 234
305 306 308 309 311 313 316 318 320 322 324 325 326 326 327 327 328 328 329 328 328 327 326 326 326 325 325 324 324 322 320 318 315 311 304 298 291 278 265 253 245 239 233
303 305 307 308 309 311 314 315 318 320 322 324 325 325 326 326 327 328 328 328 328 327 327 327 327 327 327 327 327 327 325 322 319 316 310 303 297 284 270 256 245 238 231
Height
5867 5867 5868 5868 5867 5867 5866 5865 5864 5863 5863 5862 5860 5859 5857 5855 5854 5852 5850 5849 5848 5847 5845 5844 5842 5841 5840 5839 5838 5837 5837 5836 5836 5836 5837 5837 5837 5838 5838 5839 5841 5842 5843
5863 5864 5864 5864 5864 5864 5864 5863 5862 5861 5860 5858 5856 5854 5852 5850 5849 5847 5845 5844 5842 5840 5838 5837 5835 5833 5832 5830 5829 5829 5828 5828 5828 5828 5828 5829 5830 5830 5831 5832 5833 5834 5836
5862 5862 5862 5862 5862 5862 5861 5860 5858 5857 5856 5854 5852 5850 5848 5846 5844 5842 5839 5837 5835 5833 5831 5829 5827 5825 5823 5822 5821 5820 5819 5819 5819 5819 5819 5820 5821 5822 5823 5824 5825 5826 5828
5860 5861 5860 5860 5860 5859 5858 5857 5855 5854 5852 5850 5848 5846 5843 5841 5838 5835 5833 5830 5827 5825 5822 5820 5818 5816 5814 5813 5812 5811 5810 5810 5810 5810 5810 5811 5811 5812 5814 5816 5816 5818 5820
5859 5859 5859 5858 5858 5857 5856 5854 5852 5851 5848 5846 5843 5841 5838 5835 5832 5829 5826 5823 5820 5817 5814 5812 5809 5807 5805 5804 5803 5802 5801 5800 5800 5800 5800 5801 5802 5803 5805 5807 5808 5809 5811
5858 5858 5857 5857 5856 5854 5853 5851 5849 5847 5844 5841 5838 5835 5832 5829 5825 5822 5819 5816 5812 5809 5806 5803 5801 5799 5797 5795 5793 5792 5791 5790 5790 5790 5790 5791 5792 5793 5794 5797 5798 5800 5802
5857 5856 5856 5855 5853 5852 5850 5847 5845 5842 5839 5836 5833 5830 5826 5822 5819 5815 5812 5808 5805 5802 5798 5796 5793 5790 5788 5785 5784 5782 5781 5780 5780 5779 5779 5780 5781 5782 5784 5786 5788 5790 5792
5856 5855 5854 5852 5851 5849 5847 5844 5841 5838 5835 5831 5828 5824 5820 5816 5813 5809 5805 5802 5798 5794 5791 5788 5785 5782 5779 5776 5774 5772 5771 5770 5769 5769 5769 5769 5770 5771 5773 5775 5778 5780 5783
5854 5853 5851 5850 5848 5846 5843 5840 5837 5834 5830 5826 5822 5819 5815 5811 5807 5803 5799 5795 5791 5787 5783 5780 5776 5773 5770 5767 5765 5763 5761 5759 5759 5758 5758 5758 5759 5760 5762 5764 5766 5770 5772
5852 5850 5849 5847 5845 5842 5839 5836 5833 5829 5826 5822 5818 5814 5810 5806 5802 5797 5793 5788 5784 5780 5775 5771 5767 5764 5761 5758 5755 5752 5751 5749 5748 5747 5747 5747 5747 5749 5750 5752 5755 5758 5761
5849 5848 5846 5844 5841 5839 5836 5832 5829 5825 5821 5817 5813 5809 5804 5800 5796 5791 5786 5781 5776 5771 5767 5763 5758 5755 5751 5748 5745 5742 5740 5738 5736 5735 5735 5735 5735 5736 5738 5740 5743 5746 5749
5847 5845 5843 5840 5838 5835 5832 5828 5824 5820 5816 5812 5808 5803 5799 5794 5789 5784 5779 5774 5768 5763 5758 5754 5749 5745 5741 5738 5734 5731 5728 5726 5724 5723 5722 5722 5722 5724 5725 5728 5731 5734 5737
5844 5842 5840 5837 5834 5831 5827 5823 5819 5815 5811 5807 5802 5797 5792 5787 5782 5776 5771 5765 5760 5754 5749 5744 5739 5735 5731 5727 5723 5719 5716 5714 5712 5710 5709 5709 5709 5710 5712 5714 5717 5721 5724
5841 5839 5836 5833 5830 5826 5822 5818 5814 5810 5806 5801 5797 5791 5786 5781 5775 5769 5763 5757 5751 5745 5739 5734 5729 5724 5719 5715 5711 5708 5704 5702 5699 5697 5696 5696 5696 5697 5699 5701 5704 5707 5711
5837 5835 5832 5829 5826 5822 5818 5814 5809 5805 5800 5796 5791 5785 5780 5774 5767 5761 5755 5748 5742 5735 5729 5724 5718 5713 5708 5704 5700 5696 5692 5689 5687 5685 5683 5683 5683 5683 5685 5687 5690 5694 5698
5833 5831 5828 5824 5821 5817 5813 5808 5804 5800 5795 5790 5785 5779 5773 5766 5760 5753 5746 5739 5732 5726 5719 5713 5707 5702 5697 5692 5688 5684 5680 5677 5674 5672 5670 5669 5669 5670 5671 5674 5676 5680 5684
5829 5826 5823 5820 5816 5812 5807 5803 5799 5794 5789 5784 5778 5772 5765 5758 5751 5744 5737 5730 5723 5716 5709 5703 5697 5691 5686 5681 5676 5672 5668 5665 5661 5659 5657 5656 5655 5656 5657 5659 5662 5665 5670
5825 5821 5818 5815 5811 5806 5802 5798 5793 5788 5783 5777 5771 5765 5758 5751 5743 5736 5729 5721 5714 5706 5699 5693 5686 5680 5675 5670 5665 5660 5656 5652 5649 5646 5644 5642 5641 5641 5642 5644 5647 5651 5655
5820 5816 5813 5809 5805 5801 5797 5792 5787 5782 5777 5771 5764 5757 5750 5743 5735 5727 5720 5712 5704 5697 5690 5683 5677 5670 5665 5659 5654 5649 5644 5640 5637 5633 5631 5628 5627 5627 5627 5629 5632 5636 5640
5814 5811 5807 5803 5799 5795 5791 5786 5781 5776 5770 5764 5757 5750 5743 5735 5727 5719 5711 5703 5695 5688 5681 5674 5667 5661 5655 5649 5643 5638 5633 5629 5625 5621 5618 5615 5614 5612 5613 5614 5617 5621 5626
5808 5805 5801 5797 5793 5789 5784 5780 5775 5769 5763 5757 5750 5742 5735 5727 5719 5711 5702 5694 5687 5679 5672 5665 5658 5652 5645 5639 5633 5628 5622 5617 5613 5609 5605 5602 5600 5599 5599 5601 5604 5608 5612
5801 5798 5795 5791 5787 5782 5778 5773 5768 5762 5756 5749 5742 5734 5726 5718 5710 5702 5694 5686 5678 5671 5663 5656 5650 5643 5636 5630 5624 5618 5613 5607 5602 5598 5594 5590 5588 5587 5588 5590 5592 5595 5600
5795 5791 5788 5784 5780 5775 5771 5766 5760 5754 5747 5741 5733 5726 5718 5709 5702 5693 5686 5678 5670 5662 5655 5648 5641 5634 5628 5622 5615 5610 5604 5598 5592 5588 5583 5580 5577 5576 5577 5578 5580 5583 5588
5788 5784 5780 5776 5772 5768 5763 5758 5752 5746 5739 5732 5725 5717 5709 5701 5693 5685 5677 5669 5662 5655 5647 5640 5633 5627 5620 5614 5607 5601 5595 5590 5584 5580 5575 5572 5569 5568 5567 5568 5570 5573 5578
5780 5777 5772 5768 5764 5760 5755 5750 5744 5737 5730 5723 5716 5708 5700 5692 5684 5676 5669 5662 5654 5647 5640 5633 5626 5619 5613 5607 5600 5594 5588 5583 5578 5573 5569 5566 5563 5561 5560 5561 5562 5565 5568
5772 5768 5764 5760 5755 5751 5746 5741 5735 5728 5721 5714 5707 5699 5691 5684 5676 5668 5661 5654 5647 5640 5633 5626 5620 5613 5607 5600 5594 5588 5583 5577 5572 5568 5564 5561 5558 5556 5555 5555 5555 5558 5561